Time,TemperatureF,DewpointF,PressureIn,WindDirection,WindDirectionDegrees,WindSpeedMPH,WindSpeedGustMPH,Humidity,HourlyPrecipIn,Conditions,Clouds,dailyrainin,SolarRadiationWatts/m^2,SoftwareType,DateUTC
2013-03-17 00:02:00,24.0,11.0,-100.00,WSW,238,7.0,12.0,58,0.00,,,0.00,124.000000,,2013-03-17 00:02:00,
2013-03-17 00:33:00,23.0,12.0,-100.00,SW,223,4.0,9.0,63,0.00,,,0.00,26.000000,,2013-03-17 00:33:00,
2013-03-17 00:43:00,23.0,12.0,-100.00,SW,223,4.0,9.0,63,0.00,,,0.00,26.000000,,2013-03-17 00:43:00,
2013-03-17 00:52:00,23.0,12.0,-100.00,SW,223,4.0,9.0,63,0.00,,,0.00,26.000000,,2013-03-17 00:52:00,
2013-03-17 01:02:00,23.0,12.0,-100.00,SW,223,4.0,9.0,63,0.00,,,0.00,26.000000,,2013-03-17 01:02:00,
2013-03-17 01:33:00,23.0,13.0,-100.00,West,278,1.0,5.0,64,0.00,,,0.00,0.000000,,2013-03-17 01:33:00,
2013-03-17 01:43:00,23.0,13.0,-100.00,West,278,1.0,5.0,64,0.00,,,0.00,0.000000,,2013-03-17 01:43:00,
2013-03-17 01:53:00,23.0,13.0,-100.00,West,278,1.0,5.0,64,0.00,,,0.00,0.000000,,2013-03-17 01:53:00,
2013-03-17 02:02:00,23.0,13.0,-100.00,West,278,1.0,5.0,64,0.00,,,0.00,0.000000,,2013-03-17 02:02:00,
2013-03-17 02:23:00,24.0,10.0,-100.00,WNW,302,7.0,15.0,54,0.01,,,0.01,0.000000,,2013-03-17 02:23:00,
2013-03-17 02:33:00,24.0,10.0,-100.00,WNW,302,7.0,15.0,54,0.01,,,0.01,0.000000,,2013-03-17 02:33:00,
2013-03-17 02:43:00,24.0,10.0,-100.00,WNW,302,7.0,15.0,54,0.01,,,0.01,0.000000,,2013-03-17 02:43:00,
2013-03-17 02:53:00,24.0,10.0,-100.00,WNW,302,7.0,15.0,54,0.01,,,0.01,0.000000,,2013-03-17 02:53:00,
2013-03-17 03:02:00,24.0,10.0,-100.00,WNW,302,7.0,15.0,54,0.01,,,0.01,0.000000,,2013-03-17 03:02:00,
2013-03-17 03:03:00,22.0,10.0,-100.00,NW,312,9.0,19.0,59,0.00,,,0.01,0.000000,,2013-03-17 03:03:00,
2013-03-17 03:34:00,22.0,10.0,-100.00,NW,312,9.0,19.0,59,0.00,,,0.01,0.000000,,2013-03-17 03:34:00,
2013-03-17 03:43:00,22.0,10.0,-100.00,NW,312,9.0,19.0,59,0.00,,,0.01,0.000000,,2013-03-17 03:43:00,
2013-03-17 03:53:00,22.0,10.0,-100.00,NW,312,9.0,19.0,59,0.00,,,0.01,0.000000,,2013-03-17 03:53:00,
2013-03-17 04:33:00,20.0,6.0,-100.00,NW,316,8.0,18.0,53,0.00,,,0.01,0.000000,,2013-03-17 04:33:00,
2013-03-17 04:43:00,20.0,6.0,-100.00,NW,316,8.0,18.0,53,0.00,,,0.01,0.000000,,2013-03-17 04:43:00,
2013-03-17 04:53:00,20.0,6.0,-100.00,NW,316,8.0,18.0,53,0.00,,,0.01,0.000000,,2013-03-17 04:53:00,
2013-03-17 05:02:00,20.0,6.0,-100.00,NW,316,8.0,18.0,53,0.00,,,0.01,0.000000,,2013-03-17 05:02:00,
2013-03-17 05:32:00,18.0,9.0,-100.00,North,349,5.0,19.0,66,0.00,,,0.01,0.000000,,2013-03-17 05:32:00,
2013-03-17 05:42:00,18.0,9.0,-100.00,North,349,5.0,19.0,66,0.00,,,0.01,0.000000,,2013-03-17 05:42:00,
2013-03-17 05:52:00,18.0,9.0,-100.00,North,349,5.0,19.0,66,0.00,,,0.01,0.000000,,2013-03-17 05:52:00,
2013-03-17 06:02:00,18.0,9.0,-100.00,North,349,5.0,19.0,66,0.00,,,0.01,0.000000,,2013-03-17 06:02:00,
2013-03-17 06:32:00,16.0,6.0,-100.00,North,351,7.0,19.0,63,0.00,,,0.01,0.000000,,2013-03-17 06:32:00,
2013-03-17 06:42:00,16.0,6.0,-100.00,North,351,7.0,19.0,63,0.00,,,0.01,0.000000,,2013-03-17 06:42:00,
2013-03-17 06:52:00,16.0,6.0,-100.00,North,351,7.0,19.0,63,0.00,,,0.01,0.000000,,2013-03-17 06:52:00,
2013-03-17 07:02:00,16.0,6.0,-100.00,North,351,7.0,19.0,63,0.00,,,0.01,0.000000,,2013-03-17 07:02:00,
2013-03-17 07:22:00,13.0,3.0,-100.00,NNW,346,5.0,16.0,65,0.00,,,0.01,0.000000,,2013-03-17 07:22:00,
2013-03-17 07:32:00,13.0,3.0,-100.00,NNW,346,5.0,16.0,65,0.00,,,0.01,0.000000,,2013-03-17 07:32:00,
2013-03-17 07:42:00,13.0,3.0,-100.00,NNW,346,5.0,16.0,65,0.00,,,0.01,0.000000,,2013-03-17 07:42:00,
2013-03-17 07:52:00,13.0,3.0,-100.00,NNW,346,5.0,16.0,65,0.00,,,0.01,0.000000,,2013-03-17 07:52:00,
2013-03-17 08:02:00,13.0,3.0,-100.00,NNW,346,5.0,16.0,65,0.00,,,0.01,0.000000,,2013-03-17 08:02:00,
2013-03-17 08:33:00,11.0,-1.0,-100.00,NNW,328,4.0,12.0,58,0.00,,,0.01,0.000000,,2013-03-17 08:33:00,
2013-03-17 08:42:00,11.0,-1.0,-100.00,NNW,328,4.0,12.0,58,0.00,,,0.01,0.000000,,2013-03-17 08:42:00,
2013-03-17 08:52:00,11.0,-1.0,-100.00,NNW,328,4.0,12.0,58,0.00,,,0.01,0.000000,,2013-03-17 08:52:00,
2013-03-17 09:02:00,11.0,-1.0,-100.00,NNW,328,4.0,12.0,58,0.00,,,0.01,0.000000,,2013-03-17 09:02:00,
2013-03-17 09:03:00,10.0,0.0,-100.00,NW,321,5.0,11.0,64,0.00,,,0.01,0.000000,,2013-03-17 09:03:00,
2013-03-17 09:22:00,10.0,0.0,-100.00,NW,321,5.0,11.0,64,0.00,,,0.01,0.000000,,2013-03-17 09:22:00,
2013-03-17 09:33:00,10.0,0.0,-100.00,NW,321,5.0,11.0,64,0.00,,,0.01,0.000000,,2013-03-17 09:33:00,
2013-03-17 09:43:00,10.0,0.0,-100.00,NW,321,5.0,11.0,64,0.00,,,0.01,0.000000,,2013-03-17 09:43:00,
2013-03-17 09:53:00,10.0,0.0,-100.00,NW,321,5.0,11.0,64,0.00,,,0.01,0.000000,,2013-03-17 09:53:00,
2013-03-17 10:33:00,10.0,0.0,-100.00,WNW,293,4.0,9.0,64,0.00,,,0.01,0.000000,,2013-03-17 10:33:00,
2013-03-17 10:42:00,10.0,0.0,-100.00,WNW,293,4.0,9.0,64,0.00,,,0.01,0.000000,,2013-03-17 10:42:00,
2013-03-17 10:52:00,10.0,0.0,-100.00,WNW,293,4.0,9.0,64,0.00,,,0.01,0.000000,,2013-03-17 10:52:00,
2013-03-17 11:02:00,10.0,0.0,-100.00,WNW,293,4.0,9.0,64,0.00,,,0.01,0.000000,,2013-03-17 11:02:00,
2013-03-17 11:22:00,7.0,-2.0,-100.00,NW,304,3.0,7.0,65,0.00,,,0.01,0.000000,,2013-03-17 11:22:00,
2013-03-17 11:32:00,7.0,-2.0,-100.00,NW,304,3.0,7.0,65,0.00,,,0.01,0.000000,,2013-03-17 11:32:00,
2013-03-17 11:43:00,7.0,-2.0,-100.00,NW,304,3.0,7.0,65,0.00,,,0.01,0.000000,,2013-03-17 11:43:00,
2013-03-17 11:52:00,7.0,-2.0,-100.00,NW,304,3.0,7.0,65,0.00,,,0.01,0.000000,,2013-03-17 11:52:00,
2013-03-17 12:02:00,7.0,-2.0,-100.00,NW,304,3.0,7.0,65,0.00,,,0.01,0.000000,,2013-03-17 12:02:00,
2013-03-17 12:22:00,8.0,-1.0,-100.00,NW,320,3.0,7.0,65,0.00,,,0.01,1.000000,,2013-03-17 12:22:00,
2013-03-17 12:33:00,8.0,-1.0,-100.00,NW,320,3.0,7.0,65,0.00,,,0.01,1.000000,,2013-03-17 12:33:00,
2013-03-17 12:43:00,8.0,-1.0,-100.00,NW,320,3.0,7.0,65,0.00,,,0.01,1.000000,,2013-03-17 12:43:00,
2013-03-17 12:52:00,8.0,-1.0,-100.00,NW,320,3.0,7.0,65,0.00,,,0.01,1.000000,,2013-03-17 12:52:00,
2013-03-17 13:02:00,8.0,-1.0,-100.00,NW,320,3.0,7.0,65,0.00,,,0.01,1.000000,,2013-03-17 13:02:00,
2013-03-17 13:32:00,9.0,-1.0,-100.00,NW,318,2.0,6.0,64,0.00,,,0.01,47.000000,,2013-03-17 13:32:00,
2013-03-17 13:43:00,9.0,-1.0,-100.00,NW,318,2.0,6.0,64,0.00,,,0.01,47.000000,,2013-03-17 13:43:00,
2013-03-17 13:52:00,9.0,-1.0,-100.00,NW,318,2.0,6.0,64,0.00,,,0.01,47.000000,,2013-03-17 13:52:00,
2013-03-17 14:02:00,9.0,-1.0,-100.00,NW,318,2.0,6.0,64,0.00,,,0.01,47.000000,,2013-03-17 14:02:00,
2013-03-17 14:22:00,13.0,1.0,-100.00,NW,304,3.0,6.0,59,0.00,,,0.01,162.000000,,2013-03-17 14:22:00,
2013-03-17 14:33:00,13.0,1.0,-100.00,NW,304,3.0,6.0,59,0.00,,,0.01,162.000000,,2013-03-17 14:33:00,
2013-03-17 14:42:00,13.0,1.0,-100.00,NW,304,3.0,6.0,59,0.00,,,0.01,162.000000,,2013-03-17 14:42:00,
2013-03-17 14:53:00,13.0,1.0,-100.00,NW,304,3.0,6.0,59,0.00,,,0.01,162.000000,,2013-03-17 14:53:00,
2013-03-17 15:02:00,13.0,1.0,-100.00,NW,304,3.0,6.0,59,0.00,,,0.01,162.000000,,2013-03-17 15:02:00,
2013-03-17 15:03:00,19.0,4.0,-100.00,NW,312,3.0,7.0,51,0.00,,,0.01,403.000000,,2013-03-17 15:03:00,
2013-03-17 15:33:00,19.0,4.0,-100.00,NW,312,3.0,7.0,51,0.00,,,0.01,403.000000,,2013-03-17 15:33:00,
2013-03-17 15:43:00,19.0,4.0,-100.00,NW,312,3.0,7.0,51,0.00,,,0.01,403.000000,,2013-03-17 15:43:00,
2013-03-17 15:53:00,19.0,4.0,-100.00,NW,312,3.0,7.0,51,0.00,,,0.01,403.000000,,2013-03-17 15:53:00,
2013-03-17 16:23:00,21.0,4.0,-100.00,SSW,212,6.0,11.0,48,0.00,,,0.01,707.000000,,2013-03-17 16:23:00,
2013-03-17 16:33:00,21.0,4.0,-100.00,SSW,212,6.0,11.0,48,0.00,,,0.01,707.000000,,2013-03-17 16:33:00,
2013-03-17 16:43:00,21.0,4.0,-100.00,SSW,212,6.0,11.0,48,0.00,,,0.01,707.000000,,2013-03-17 16:43:00,
2013-03-17 16:52:00,21.0,4.0,-100.00,SSW,212,6.0,11.0,48,0.00,,,0.01,707.000000,,2013-03-17 16:52:00,
2013-03-17 17:02:00,21.0,4.0,-100.00,SSW,212,6.0,11.0,48,0.00,,,0.01,707.000000,,2013-03-17 17:02:00,
2013-03-17 17:33:00,26.0,8.0,-100.00,SSW,200,3.0,8.0,45,0.00,,,0.01,847.000000,,2013-03-17 17:33:00,
2013-03-17 17:42:00,26.0,8.0,-100.00,SSW,200,3.0,8.0,45,0.00,,,0.01,847.000000,,2013-03-17 17:42:00,
2013-03-17 17:53:00,26.0,8.0,-100.00,SSW,200,3.0,8.0,45,0.00,,,0.01,847.000000,,2013-03-17 17:53:00,
2013-03-17 18:02:00,26.0,8.0,-100.00,SSW,200,3.0,8.0,45,0.00,,,0.01,847.000000,,2013-03-17 18:02:00,
2013-03-17 18:22:00,21.0,4.0,-100.00,SW,234,10.0,14.0,48,0.00,,,0.01,662.000000,,2013-03-17 18:22:00,
2013-03-17 18:32:00,21.0,4.0,-100.00,SW,234,10.0,14.0,48,0.00,,,0.01,662.000000,,2013-03-17 18:32:00,
2013-03-17 18:42:00,21.0,4.0,-100.00,SW,234,10.0,14.0,48,0.00,,,0.01,662.000000,,2013-03-17 18:42:00,
2013-03-17 18:52:00,21.0,4.0,-100.00,SW,234,10.0,14.0,48,0.00,,,0.01,662.000000,,2013-03-17 18:52:00,
2013-03-17 19:02:00,21.0,4.0,-100.00,SW,234,10.0,14.0,48,0.00,,,0.01,662.000000,,2013-03-17 19:02:00,
2013-03-17 19:23:00,22.0,6.0,-100.00,WSW,244,9.0,16.0,50,0.00,,,0.01,849.000000,,2013-03-17 19:23:00,
2013-03-17 19:33:00,22.0,6.0,-100.00,WSW,244,9.0,16.0,50,0.00,,,0.01,849.000000,,2013-03-17 19:33:00,
2013-03-17 19:42:00,22.0,6.0,-100.00,WSW,244,9.0,16.0,50,0.00,,,0.01,849.000000,,2013-03-17 19:42:00,
2013-03-17 19:53:00,22.0,6.0,-100.00,WSW,244,9.0,16.0,50,0.00,,,0.01,849.000000,,2013-03-17 19:53:00,
2013-03-17 20:02:00,22.0,6.0,-100.00,WSW,244,9.0,16.0,50,0.00,,,0.01,849.000000,,2013-03-17 20:02:00,
2013-03-17 20:33:00,25.0,5.0,-100.00,SSE,155,6.0,15.0,42,0.00,,,0.01,719.000000,,2013-03-17 20:33:00,
2013-03-17 20:43:00,25.0,5.0,-100.00,SSE,155,6.0,15.0,42,0.00,,,0.01,719.000000,,2013-03-17 20:43:00,
2013-03-17 20:52:00,25.0,5.0,-100.00,SSE,155,6.0,15.0,42,0.00,,,0.01,719.000000,,2013-03-17 20:52:00,
2013-03-17 21:02:00,25.0,5.0,-100.00,SSE,155,6.0,15.0,42,0.00,,,0.01,719.000000,,2013-03-17 21:02:00,
2013-03-17 21:03:00,23.0,8.0,-100.00,WSW,239,9.0,15.0,53,0.00,,,0.01,653.000000,,2013-03-17 21:03:00,
2013-03-17 21:33:00,23.0,8.0,-100.00,WSW,239,9.0,15.0,53,0.00,,,0.01,653.000000,,2013-03-17 21:33:00,
2013-03-17 21:43:00,23.0,8.0,-100.00,WSW,239,9.0,15.0,53,0.00,,,0.01,653.000000,,2013-03-17 21:43:00,
2013-03-17 21:52:00,23.0,8.0,-100.00,WSW,239,9.0,15.0,53,0.00,,,0.01,653.000000,,2013-03-17 21:52:00,
2013-03-17 22:33:00,23.0,7.0,-100.00,SSE,151,8.0,11.0,49,0.00,,,0.01,443.000000,,2013-03-17 22:33:00,
2013-03-17 22:42:00,23.0,7.0,-100.00,SSE,151,8.0,11.0,49,0.00,,,0.01,443.000000,,2013-03-17 22:42:00,
2013-03-17 22:53:00,23.0,7.0,-100.00,SSE,151,8.0,11.0,49,0.00,,,0.01,443.000000,,2013-03-17 22:53:00,
2013-03-17 23:02:00,23.0,7.0,-100.00,SSE,151,8.0,11.0,49,0.00,,,0.01,443.000000,,2013-03-17 23:02:00,
2013-03-17 23:03:00,22.0,7.0,-100.00,SSE,148,9.0,12.0,52,0.00,,,0.01,223.000000,,2013-03-17 23:03:00,
2013-03-17 23:23:00,22.0,7.0,-100.00,SSE,148,9.0,12.0,52,0.00,,,0.01,223.000000,,2013-03-17 23:23:00,
2013-03-17 23:33:00,22.0,7.0,-100.00,SSE,148,9.0,12.0,52,0.00,,,0.01,223.000000,,2013-03-17 23:33:00,
2013-03-17 23:43:00,22.0,7.0,-100.00,SSE,148,9.0,12.0,52,0.00,,,0.01,223.000000,,2013-03-17 23:43:00,
2013-03-17 23:53:00,22.0,7.0,-100.00,SSE,148,9.0,12.0,52,0.00,,,0.01,223.000000,,2013-03-17 23:53:00,